Content
SEND FEEDBACK

Daily
Averages
Monthly
Summary
United States of America

INARAJAN, GUAM


Home > North America > United States > Guam
Elevation: 85 meters     Latitude: 13 18N     Longitude: 144 44E

WEATHER
 
SELECT A DAY
Number of Records: 341,524;   Date Range: 1/1/95 - 7/7/14
 
SHARE

PRINT THIS DATA

[ ← Previous Day ]
WEATHER ALMANAC - 3 JULY, 2013
[ Next Day → ]
[ °F ]   °C
Weather ElementAverageHighLow
Temperature27.9 °C30.2 °C (12:55 pm)25.6 °C (2:55 am)
Dewpoint25.8 °C27 °C (10:58 am)23.5 °C (4:55 am)
Humidity88 %100 % (8:51 pm)79 % (11:41 am)
Barometer1010.5 hPa1011.5 hPa (8:07 am)1008.8 hPa (3:55 pm)
Wind Speed17.9 km/h29.6 km/h (12:28 am)
Wind Gust29.6 km/h (11:55 am)
Weather ElementAverage
Visibility16.1 km
Wind DirectionENE (65.4 °)

Weather ElementTotal
Precipitation---
Cooling Degree Days9.6 (Base 18.3)
Growing Degree Days17.9 (Base 10)
Averaged from 87 records on 3 July, 2013
WEATHER CONDITIONS BREAKOUT
WIND DIRECTION BREAKOUT
WEATHER BY HOUR - 3 JULY, 2013
[ °F ]   °C
Local TimeTemperatureDewpointHumidityBarometerVisibilityWind DirectionWind SpeedGust SpeedPrecipitationEventsConditions
12:28 AM27 °C25 °C89 %1010.8 hPa16.1 kmENE (60°)29.6 km/hMostly Cloudy
12:31 AM27 °C24 °C84 %1010.8 hPa16.1 kmENE (70°)25.9 km/hMostly Cloudy
12:34 AM27 °C25 °C89 %1010.8 hPa16.1 kmENE (70°)25.9 km/hLight Drizzle
12:44 AM26 °C25 °C94 %1010.5 hPa16.1 kmENE (70°)18.5 km/hMostly Cloudy
12:53 AM26 °C25 °C94 %1010.2 hPa16.1 kmEast (80°)16.7 km/hScattered Clouds
12:55 AM25.7 °C24.4 °C92 %1010.2 hPa16.1 kmEast (90°)14.8 km/h0 mmScattered Clouds
1:12 AM26 °C25 °C94 %1010.5 hPa16.1 kmEast (90°)14.8 km/hMostly Cloudy
1:28 AM26 °C24 °C89 %1010.2 hPa16.1 kmEast (90°)13 km/hScattered Clouds
1:55 AM26 °C24.8 °C93 %1009.8 hPa16.1 kmEast (100°)9.3 km/hClear
2:55 AM25.6 °C25.1 °C97 %1009.5 hPa16.1 kmENE (70°)9.3 km/hClear
3:55 AM25.9 °C24.6 °C92 %1009.5 hPa16.1 kmESE (110°)9.3 km/hScattered Clouds
4:55 AM26.6 °C23.5 °C83 %1009.5 hPa16.1 kmEast (100°)13 km/hScattered Clouds
5:17 AM27 °C25 °C89 %1009.8 hPa16.1 kmEast (100°)16.7 km/hMostly Cloudy
5:23 AM27 °C25 °C89 %1009.8 hPa16.1 kmEast (100°)18.5 km/hMostly Cloudy
5:55 AM26.8 °C25 °C90 %1010.2 hPa16.1 kmEast (90°)14.8 km/hOvercast
6:03 AM27 °C25 °C89 %1010.2 hPa16.1 kmEast (80°)14.8 km/hMostly Cloudy
6:04 AM27 °C25 °C89 %1010.2 hPa16.1 kmEast (80°)13 km/hMostly Cloudy
6:05 AM27 °C25 °C89 %1010.2 hPa16.1 kmEast (80°)14.8 km/hOvercast
6:06 AM27 °C25 °C89 %1010.2 hPa16.1 kmEast (80°)14.8 km/hOvercast
6:18 AM27 °C25 °C89 %1010.5 hPa16.1 kmEast (80°)16.7 km/hMostly Cloudy
6:21 AM27 °C25 °C89 %1010.5 hPa16.1 kmEast (80°)14.8 km/hScattered Clouds
6:55 AM27.1 °C25.5 °C91 %1010.8 hPa16.1 kmEast (90°)11.1 km/hScattered Clouds
6:59 AM27 °C26 °C94 %1011.2 hPa16.1 kmEast (90°)13 km/hMostly Cloudy
7:01 AM27 °C26 °C94 %1011.2 hPa16.1 kmEast (90°)13 km/hScattered Clouds
7:16 AM27 °C26 °C94 %1011.2 hPa16.1 kmEast (90°)9.3 km/hMostly Cloudy
7:43 AM28 °C26 °C89 %1011.2 hPa16.1 kmEast (80°)14.8 km/hMostly Cloudy
7:55 AM28.6 °C26.1 °C86 %1011.2 hPa16.1 kmENE (60°)18.5 km/hMostly Cloudy
8:01 AM29 °C26 °C84 %1011.2 hPa16.1 kmENE (70°)20.4 km/hMostly Cloudy
8:07 AM29 °C26 °C84 %1011.5 hPa16.1 kmENE (60°)20.4 km/hScattered Clouds
8:55 AM29.5 °C25.8 °C80 %1011.5 hPa16.1 kmEast (80°)16.7 km/hPartly Cloudy
9:55 AM29.4 °C25.8 °C81 %1011.5 hPa16.1 kmNE (40°)18.5 km/hScattered Clouds
9:56 AM29 °C26 °C84 %1011.5 hPa16.1 kmNE (50°)18.5 km/hMostly Cloudy
10:55 AM30.1 °C26.6 °C81 %1011.2 hPa16.1 kmENE (70°)18.5 km/hScattered Clouds
10:58 AM30 °C27 °C84 %1011.2 hPa16.1 kmENE (60°)18.5 km/hMostly Cloudy
11:12 AM30 °C27 °C84 %1011.2 hPa16.1 kmENE (60°)16.7 km/hScattered Clouds
11:25 AM30 °C27 °C84 %1010.8 hPa16.1 kmEast (80°)16.7 km/hMostly Cloudy
11:29 AM30 °C27 °C84 %1010.8 hPa16.1 kmENE (60°)20.4 km/hScattered Clouds
11:37 AM30 °C27 °C84 %1010.8 hPa16.1 kmENE (60°)16.7 km/hMostly Cloudy
11:41 AM30 °C26 °C79 %1010.8 hPa16.1 kmENE (60°)18.5 km/hScattered Clouds
11:42 AM30 °C26 °C79 %1010.8 hPa16.1 kmENE (60°)18.5 km/hMostly Cloudy
11:55 AM30.1 °C26 °C79 %1010.5 hPa16.1 kmENE (60°)20.4 km/h29.6 km/hScattered Clouds
12:16 PM30 °C26 °C79 %1010.2 hPa16.1 kmENE (60°)20.4 km/hMostly Cloudy
12:20 PM30 °C26 °C79 %1010.2 hPa16.1 kmENE (70°)14.8 km/hScattered Clouds
12:22 PM30 °C26 °C79 %1010.2 hPa16.1 kmEast (90°)18.5 km/hMostly Cloudy
12:41 PM30 °C26 °C79 %1010.2 hPa16.1 kmENE (60°)22.2 km/hMostly Cloudy
12:55 PM30.2 °C26.1 °C79 %1010.2 hPa16.1 kmENE (60°)20.4 km/hScattered Clouds
1:07 PM30 °C26 °C79 %1009.8 hPa16.1 kmENE (60°)20.4 km/hMostly Cloudy
1:13 PM30 °C26 °C79 %1010.2 hPa16.1 kmENE (60°)20.4 km/hMostly Cloudy
1:55 PM29.7 °C26.1 °C81 %1009.8 hPa16.1 kmENE (60°)18.5 km/hScattered Clouds
2:48 PM29 °C26 °C84 %1009.5 hPa16.1 kmENE (60°)20.4 km/hMostly Cloudy
2:51 PM29 °C26 °C84 %1009.5 hPa16.1 kmENE (60°)20.4 km/hScattered Clouds
2:52 PM29 °C26 °C84 %1009.1 hPa16.1 kmENE (70°)20.4 km/hMostly Cloudy
2:54 PM29 °C26 °C84 %1009.1 hPa16.1 kmNE (50°)16.7 km/hScattered Clouds
2:55 PM29.6 °C26.1 °C81 %1009.1 hPa16.1 kmNE (50°)20.4 km/hScattered Clouds
3:00 PM30 °C26 °C79 %1009.1 hPa16.1 kmENE (70°)18.5 km/hMostly Cloudy
3:05 PM30 °C26 °C79 %1009.1 hPa16.1 kmENE (60°)20.4 km/hScattered Clouds
3:55 PM29.2 °C25.6 °C81 %1008.8 hPa16.1 kmENE (60°)16.7 km/hPartly Cloudy
4:55 PM29.1 °C25.9 °C83 %1009.1 hPa16.1 kmENE (60°)20.4 km/hPartly Cloudy
5:55 PM28.5 °C25.8 °C85 %1009.1 hPa16.1 kmENE (60°)20.4 km/hPartly Cloudy
6:55 PM27.8 °C25.8 °C89 %1009.5 hPa16.1 kmNE (40°)18.5 km/hPartly Cloudy
7:55 PM27.6 °C25.7 °C89 %1010.2 hPa16.1 kmENE (60°)16.7 km/hClear
8:04 PM28 °C26 °C89 %1010.5 hPa16.1 kmENE (60°)14.8 km/hLight Drizzle
8:12 PM28 °C27 °C94 %1010.5 hPa16.1 kmNE (50°)20.4 km/hRainLight Rain
8:15 PM28 °C26 °C89 %1010.5 hPa16.1 kmNE (50°)18.5 km/hRainLight Rain
8:16 PM28 °C26 °C89 %1010.5 hPa16.1 kmNE (50°)18.5 km/hScattered Clouds
8:20 PM27 °C26 °C94 %1010.5 hPa16.1 kmNE (50°)16.7 km/hMostly Cloudy
8:26 PM27 °C26 °C94 %1010.5 hPa16.1 kmNE (50°)22.2 km/hScattered Clouds
8:38 PM27 °C26 °C94 %1010.8 hPa16.1 kmNE (50°)18.5 km/hLight Drizzle
8:51 PM27 °C27 °C100 %1010.8 hPa16.1 kmNE (50°)20.4 km/hLight Drizzle
8:55 PM27.4 °C25.2 °C88 %1010.8 hPa16.1 kmNE (40°)24.1 km/h0 mmMostly Cloudy
9:11 PM27 °C26 °C94 %1010.8 hPa16.1 kmNE (50°)20.4 km/hScattered Clouds
9:15 PM27 °C26 °C94 %1010.8 hPa16.1 kmNE (50°)18.5 km/hMostly Cloudy
9:22 PM27 °C26 °C94 %1011.2 hPa16.1 kmNE (50°)20.4 km/hMostly Cloudy
9:31 PM27 °C26 °C94 %1011.2 hPa16.1 kmENE (60°)18.5 km/hRainLight Rain
9:32 PM27 °C26 °C94 %1011.2 hPa16.1 kmENE (60°)20.4 km/hRainLight Rain
9:50 PM27 °C26 °C94 %1011.2 hPa16.1 kmNE (50°)22.2 km/hMostly Cloudy
9:55 PM27 °C26.1 °C95 %1011.2 hPa16.1 kmNE (50°)20.4 km/h0 mmMostly Cloudy
9:58 PM27 °C26 °C94 %1011.2 hPa16.1 kmENE (60°)18.5 km/hMostly Cloudy
10:24 PM27 °C26 °C94 %1011.2 hPa16.1 kmNE (50°)18.5 km/hMostly Cloudy
10:31 PM27 °C26 °C94 %1011.2 hPa16.1 kmNE (50°)16.7 km/hScattered Clouds
10:50 PM27 °C26 °C94 %1011.2 hPa16.1 kmNE (50°)18.5 km/hMostly Cloudy
10:53 PM27 °C26 °C94 %1011.2 hPa16.1 kmNE (50°)14.8 km/hScattered Clouds
10:55 PM27 °C26 °C94 %1011.2 hPa16.1 kmENE (60°)13 km/hScattered Clouds
11:11 PM27 °C26 °C94 %1011.2 hPa16.1 kmNE (40°)16.7 km/hMostly Cloudy
11:19 PM27 °C26 °C94 %1010.8 hPa16.1 kmNE (50°)20.4 km/hScattered Clouds
11:47 PM27 °C26 °C94 %1010.8 hPa16.1 kmNE (50°)20.4 km/hMostly Cloudy
11:55 PM27.3 °C25.9 °C92 %1010.8 hPa16.1 kmNE (50°)16.7 km/hMostly Cloudy
Hourly data recorded from PGUA, located 0 kilometers away from Inarajan, Guam







STORIES FROM OUR PARTNERS